Weather History for Wheaton NDB, MN

Change the Weather History Date:

Friday, March 8, 2013

  Actual Average Record
Temperature  
Mean Temperature 19 °F -  
Max Temperature 32 °F 35 °F 68 °F (1987)
Min Temperature 6 °F 15 °F -9 °F (1951)
Degree Days  
Heating Degree Days 46    
Moisture  
Dew Point 17 °F    
Average Humidity 91    
Maximum Humidity 100    
Minimum Humidity 79    
Precipitation  
Precipitation 0.62 in - - ()
Sea Level Pressure  
Sea Level Pressure 30.19 in    
Wind  
Wind Speed 5 mph (ESE)    
Max Wind Speed 15 mph    
Max Gust Speed -    
Visibility 4 miles    
Events Snow    
Averages and records for this station are not official NWS values.
T = Trace of Precipitation, MM = Missing Value Source: NWS Daily Summary

Daily Weather History Graph

Daily Weather History Graph

Search for Another Location

Airport:

Trip Planner

Search our weather history database for the weather conditions in past years. The results will help you decide how hot, cold, wet, or windy it might be!

Date:

Astronomy

Mar. 08, 2013 Rise Set
Actual Time 6:51 AM CST 6:22 PM CST
Civil Twilight 6:21 AM CST 6:52 PM CST
Nautical Twilight 5:47 AM CST 7:27 PM CST
Astronomical Twilight 5:12 AM CST 8:02 PM CST
Moon 4:45 AM CST (3/8) 3:11 PM CST (3/8)
Length of Visible Light 12h 30m
Length of Day
11h 31m
Waning Crescent, 11% of the Moon is Illuminated
Mar 8
Waning Crescent
Mar 11
New
Mar 19
First Quarter
Mar 27
Full
Apr 2
Last Quarter

Hourly Weather History & Observations

Time (CST) Temp. Windchill Dew Point Humidity Pressure Visibility Wind Dir Wind Speed Gust Speed Precip Events Conditions
12:15 AM 14.0 °F 8.2 °F 12.2 °F 93% 30.24 in 10.0 mi SE 3.5 mph - N/A   Clear
12:35 AM 14.0 °F 5.1 °F 12.2 °F 93% 30.23 in 10.0 mi SE 5.8 mph - N/A   Clear
12:54 AM 12.2 °F 2.9 °F 10.4 °F 92% 30.24 in 7.0 mi SE 5.8 mph - N/A   Clear
1:15 AM 12.2 °F -0.2 °F 10.4 °F 92% 30.23 in 10.0 mi SE 9.2 mph - N/A   Mostly Cloudy
1:34 AM 12.2 °F 1.7 °F 10.4 °F 92% 30.24 in 10.0 mi SE 6.9 mph - N/A   Overcast
1:55 AM 12.2 °F 0.7 °F 10.4 °F 92% 30.24 in 7.0 mi SE 8.1 mph - N/A   Scattered Clouds
2:14 AM 12.2 °F 4.3 °F 10.4 °F 92% 30.25 in 7.0 mi SSE 4.6 mph - N/A   Clear
2:35 AM 14.0 °F 5.1 °F 10.4 °F 86% 30.24 in 7.0 mi SSE 5.8 mph - N/A   Clear
2:55 AM 12.2 °F 6.1 °F 10.4 °F 92% 30.24 in 7.0 mi SSE 3.5 mph - N/A   Clear
3:15 AM 10.4 °F 4.0 °F 8.6 °F 92% 30.23 in 7.0 mi SE 3.5 mph - N/A   Clear
3:34 AM 10.4 °F 2.2 °F 8.6 °F 92% 30.23 in 7.0 mi SE 4.6 mph - N/A   Clear
3:54 AM 8.6 °F 0.1 °F 8.6 °F 100% 30.22 in 7.0 mi SE 4.6 mph - N/A   Clear
4:14 AM 10.4 °F 0.8 °F 8.6 °F 92% 30.23 in 7.0 mi SE 5.8 mph - N/A   Clear
4:35 AM 10.4 °F -0.4 °F 10.4 °F 100% 30.23 in 7.0 mi SE 6.9 mph - N/A   Clear
4:55 AM 8.6 °F 0.1 °F 6.8 °F 92% 30.24 in 7.0 mi SE 4.6 mph - N/A   Clear
5:15 AM 6.8 °F -2.0 °F 5.0 °F 92% 30.24 in 7.0 mi SE 4.6 mph - N/A   Clear
5:34 AM 8.6 °F -3.7 °F 6.8 °F 92% 30.24 in 7.0 mi SE 8.1 mph - N/A   Clear
5:55 AM 6.8 °F -5.9 °F 5.0 °F 92% 30.24 in 7.0 mi SE 8.1 mph - N/A   Clear
6:34 AM 8.6 °F - 6.8 °F 92% 30.25 in 5.0 mi Calm Calm - N/A   Clear
6:54 AM 8.6 °F - 5.0 °F 85% 30.25 in 5.0 mi Calm Calm - N/A   Clear
7:14 AM 8.6 °F - 6.8 °F 92% 30.25 in 5.0 mi Calm Calm - N/A   Clear
7:35 AM 8.6 °F - 6.8 °F 92% 30.25 in 5.0 mi Calm Calm - N/A   Clear
7:54 AM 10.4 °F - 8.6 °F 92% 30.25 in 5.0 mi Calm Calm - N/A   Clear
8:14 AM 10.4 °F - 8.6 °F 92% 30.25 in 5.0 mi Calm Calm - N/A   Clear
8:34 AM 10.4 °F - 8.6 °F 92% 30.25 in 4.0 mi Calm Calm - N/A   Clear
8:54 AM 12.2 °F - 10.4 °F 92% 30.26 in 4.0 mi Calm Calm - N/A   Clear
9:14 AM 12.2 °F 6.1 °F 10.4 °F 92% 30.25 in 4.0 mi ESE 3.5 mph - N/A   Clear
9:34 AM 14.0 °F - 12.2 °F 93% 30.26 in 4.0 mi Calm Calm - N/A   Scattered Clouds
9:54 AM 15.8 °F - 12.2 °F 86% 30.26 in 4.0 mi Calm Calm - N/A   Overcast
10:14 AM 17.6 °F - 12.2 °F 79% 30.25 in 4.0 mi Calm Calm - N/A   Overcast
10:34 AM 17.6 °F - 14.0 °F 86% 30.25 in 4.0 mi Calm Calm - N/A   Overcast
10:55 AM 17.6 °F - 15.8 °F 93% 30.25 in 4.0 mi Calm Calm - N/A   Overcast
11:15 AM 19.4 °F - 15.8 °F 86% 30.25 in 4.0 mi Calm Calm - N/A   Overcast
11:35 AM 19.4 °F 14.3 °F 15.8 °F 86% 30.24 in 4.0 mi ESE 3.5 mph - N/A   Overcast
11:55 AM 21.2 °F 16.4 °F 17.6 °F 86% 30.25 in 4.0 mi ESE 3.5 mph - N/A   Overcast
12:15 PM 21.2 °F 14.9 °F 17.6 °F 86% 30.23 in 3.0 mi East 4.6 mph - N/A   Overcast
12:34 PM 21.2 °F 14.9 °F 19.4 °F 93% 30.23 in 2.5 mi East 4.6 mph - N/A   Overcast
12:54 PM 23.0 °F 17.0 °F 19.4 °F 86% 30.23 in 1.8 mi East 4.6 mph - N/A   Overcast
1:15 PM 23.0 °F 17.0 °F 21.2 °F 93% 30.22 in 1.2 mi ENE 4.6 mph - N/A   Overcast
1:35 PM 24.8 °F 20.5 °F 21.2 °F 86% 30.23 in 1.0 mi East 3.5 mph - N/A   Overcast
1:54 PM 24.8 °F - 21.2 °F 86% 30.23 in 1.0 mi Calm Calm - N/A   Overcast
2:15 PM 24.8 °F 20.5 °F 23.0 °F 93% 30.22 in 1.0 mi East 3.5 mph - N/A   Overcast
2:34 PM 26.6 °F 22.6 °F 23.0 °F 86% 30.21 in 1.5 mi NNE 3.5 mph - N/A   Overcast
2:55 PM 24.8 °F 17.9 °F 23.0 °F 93% 30.21 in 1.5 mi East 5.8 mph - N/A   Overcast
3:14 PM 24.8 °F 19.1 °F 23.0 °F 93% 30.21 in 1.5 mi ENE 4.6 mph - N/A   Overcast
3:34 PM 26.6 °F 20.0 °F 23.0 °F 86% 30.20 in 2.0 mi NE 5.8 mph - N/A   Mostly Cloudy
3:54 PM 26.6 °F 19.1 °F 23.0 °F 86% 30.18 in 2.0 mi NE 6.9 mph - N/A   Clear
4:15 PM 26.6 °F 20.0 °F 24.8 °F 93% 30.17 in 2.5 mi NE 5.8 mph - N/A   Clear
4:34 PM 26.6 °F 20.0 °F 24.8 °F 93% 30.16 in 2.0 mi NNE 5.8 mph - N/A   Clear
4:55 PM 26.6 °F 21.2 °F 23.0 °F 86% 30.17 in 2.5 mi ENE 4.6 mph - N/A   Clear
5:14 PM 26.6 °F 21.2 °F 24.8 °F 93% 30.16 in 2.5 mi ENE 4.6 mph - N/A   Clear
5:35 PM 26.6 °F 21.2 °F 24.8 °F 93% 30.15 in 3.0 mi NE 4.6 mph - N/A   Clear
5:54 PM 26.6 °F 21.2 °F 24.8 °F 93% 30.15 in 4.0 mi ENE 4.6 mph - N/A   Clear
6:14 PM 26.6 °F 20.0 °F 24.8 °F 93% 30.13 in 4.0 mi ENE 5.8 mph - N/A   Clear
6:35 PM 24.8 °F 17.9 °F 21.2 °F 86% 30.13 in 4.0 mi East 5.8 mph - N/A   Clear
6:54 PM 23.0 °F 15.8 °F 21.2 °F 93% 30.13 in 3.0 mi ENE 5.8 mph - N/A   Clear
7:15 PM 24.8 °F 17.9 °F 21.2 °F 86% 30.13 in 4.0 mi East 5.8 mph - N/A   Clear
7:35 PM 23.0 °F 15.8 °F 21.2 °F 93% 30.13 in 4.0 mi East 5.8 mph - N/A   Clear
7:54 PM 24.8 °F 16.1 °F 21.2 °F 86% 30.12 in 4.0 mi East 8.1 mph - N/A   Clear
8:14 PM 24.8 °F 14.6 °F 21.2 °F 86% 30.11 in 5.0 mi ESE 10.4 mph - N/A   Clear
8:34 PM 26.6 °F 16.2 °F 23.0 °F 86% 30.10 in 5.0 mi East 11.5 mph - N/A   Scattered Clouds
8:54 PM 26.6 °F 15.2 °F 24.8 °F 93% 30.07 in 4.0 mi East 13.8 mph - N/A Snow Light Snow
9:14 PM 30.2 °F 19.8 °F 26.6 °F 86% 30.07 in 4.0 mi ESE 13.8 mph - 0.02 in Snow Light Snow
9:35 PM 30.2 °F 19.3 °F 28.4 °F 93% 30.06 in 4.0 mi East 15.0 mph - 0.04 in Snow Light Snow
9:55 PM 30.2 °F 20.8 °F 28.4 °F 93% 30.06 in 3.0 mi ESE 11.5 mph - 0.10 in Snow Light Snow
10:14 PM 30.2 °F 22.6 °F 28.4 °F 93% 30.05 in 2.5 mi ESE 8.1 mph - 0.06 in Snow Light Snow
10:35 PM 30.2 °F 22.6 °F 28.4 °F 93% 30.04 in 2.5 mi ESE 8.1 mph - 0.12 in Snow Light Snow
10:55 PM 30.2 °F 23.4 °F 30.2 °F 100% 30.02 in 2.5 mi East 6.9 mph - 0.18 in Snow Light Snow
11:15 PM 32.0 °F 28.7 °F 30.2 °F 93% 30.02 in 2.0 mi ESE 3.5 mph - 0.10 in Snow Light Snow
11:35 PM 32.0 °F - 30.2 °F 93% 30.03 in 1.8 mi Calm Calm - 0.26 in Snow Light Snow
11:55 PM 32.0 °F - 30.2 °F 93% 30.02 in 2.0 mi Calm Calm - 0.34 in Snow Light Snow